Location: Newark
(42.9260°N, 89.3850°W)
Time: 04:31:23
(UTC+00:00)

STARLINK 1062 - Pass Details

Date: 14 December 2019
Orbit: 548 x 551 km, 53.0° (Epoch: 22 January)

Event Time Altitude Azimuth Distance (km) Brightness Sun altitude
Exits shadow 10:43:46 25° 162° (SSE) 1,206 5.5 -27.8°
Drops below altitude 10° 10:45:46 10° 150° (SSE) 1,914 6.8 -27.4°
Sets 10:48:05 0° 144° (SE) 2,813 7.8 -27.0°
